Home > Time Zones > World Clock > Weather > U.S.A. > Napa > Past weeks

Flag for U.S.A. Weather past 2 weeks in Napa, California, U.S.A.

Now
59 °F

Passing clouds.


Feels Like: 58 °F
Forecast: 47 / 68 °F
Wind: 8 mph from Southwest

Location: Napa County Airport

Current Time: Oct 25, 2014 at 8:59:24 PM

Latest Report: Oct 25, 2014 at 7:54 PM


Visibility: 10 mi

Pressure: 30.05 "Hg

Humidity: 87%

Dew point: 55 °F

Location of NapaLocation

Historic Weather in Napa — Graph

°F

Napa temperature yesterday

Maximum temperature yesterday: 73 °F (at 12:54 PM)
Minimum temperature yesterday: 46 °F (at 6:54 AM)
Average temperature yesterday: 60 °F

Past Weeks' High & Low Weather Summary

 TemperatureHumidityPressure
High95 °F (Oct 12, 2:54 PM)100% (Oct 11, 1:54 AM)30.09 "Hg (Oct 11, 1:54 AM)
Low42 °F (Oct 22, 7:54 AM)4% (Oct 12, 3:54 PM)29.79 "Hg (Oct 14, 5:54 PM)
Average61 °F77%29.94 "Hg
* Reported Oct 10 7:54 PM — Oct 25 7:54 PM, Napa, Weather by CustomWeather, © 2014

Note: Actual official high and low records may vary slightly from our data, if they occured in-between our weather recording intervals... More about our weather records

Advertising

Napa weather history for previous 24 hours

 ConditionsComfort  
Time TempWeatherWind HumidityBarometerVisibility
7:54 PM
Oct 25
59 °FPassing clouds.8 mph87%30.05 "Hg10 mi
6:54 PM60 °FScattered clouds.8 mph83%30.03 "Hg10 mi
5:54 PM64 °FMore clouds than sun.13 mph78%30.02 "Hg10 mi
4:54 PM67 °FMostly cloudy.10 mph71%30.02 "Hg10 mi
3:54 PM67 °FBroken clouds.17 mph71%30.01 "Hg10 mi
2:54 PM71 °FMostly cloudy.18 mph61%30.00 "Hg10 mi
1:54 PM70 °FMostly cloudy.17 mph64%30.01 "Hg10 mi
12:54 PM67 °FMostly cloudy.17 mph76%30.01 "Hg10 mi
11:54 AM69 °FScattered clouds.18 mph70%30.00 "Hg10 mi
10:54 AM68 °FCloudy.17 mph78%29.99 "Hg10 mi
9:54 AM64 °FPartly sunny.12 mph87%29.98 "Hg10 mi
8:54 AM60 °FMostly cloudy.5 mph93%29.96 "Hg10 mi
7:54 AM58 °FOvercast.7 mph97%29.93 "Hg10 mi
7:03 AM59 °FLight rain. Fog.9 mph96%29.95 "Hg5 mi
6:54 AM59 °FLight rain. Fog.10 mph96%29.93 "Hg3 mi
6:04 AM60 °FLight rain. Fog.9 mph100%29.93 "Hg5 mi
5:54 AM60 °FRain. Fog.12 mph100%29.90 "Hg2 mi
5:02 AM61 °FRain. Fog.16 mph93%29.91 "Hg2 mi
4:54 AM61 °FLight rain. Fog.10 mph93%29.87 "Hg4 mi
3:54 AM64 °FMostly cloudy.13 mph75%29.85 "Hg10 mi
2:54 AM64 °FPassing clouds.10 mph70%29.86 "Hg10 mi
1:54 AM64 °FOvercast.9 mph70%29.88 "Hg10 mi
12:54 AM61 °FPassing clouds.10 mph83%29.88 "Hg10 mi
11:54 PM
Oct 24
61 °FPassing clouds.9 mph87%29.88 "Hg10 mi
10:54 PM60 °FPassing clouds.No wind86%29.90 "Hg10 mi
9:54 PM62 °FPassing clouds.3 mph83%29.88 "Hg10 mi
8:54 PM61 °FClear.12 mph87%29.87 "Hg10 mi
Weather by CustomWeather, © 2014

See weather overviewHow to use our weather pages